Date,TemperatureHighF,TemperatureAvgF,TemperatureLowF,DewpointHighF,DewpointAvgF,DewpointLowF,HumidityHigh,HumidityAvg,HumidityLow,PressureMaxIn,PressureMinIn,WindSpeedMaxMPH,WindSpeedAvgMPH,GustSpeedMaxMPH,PrecipitationSumIn
2013-1-1,83.8,73.2,65.3,64.3,61.9,58.5,94,69,50,30.14,29.99,16,1,16,0.00
2013-1-2,84.0,71.8,61.0,70.9,65.5,61.0,100,83,50,30.03,29.93,9,1,9,0.00
2013-1-3,84.9,73.3,65.5,71.3,67.9,64.4,100,85,54,30.07,29.96,8,1,8,0.03
2013-1-4,86.1,72.7,64.8,74.7,69.6,64.8,100,91,60,30.16,30.04,10,1,10,0.00
2013-1-5,81.1,70.8,67.3,74.1,69.3,67.3,100,96,76,30.19,30.09,9,1,9,0.03
2013-1-6,84.0,73.6,65.2,76.3,70.0,65.2,100,90,66,30.13,30.00,11,1,11,0.00
2013-1-7,79.4,71.4,66.4,72.5,69.5,66.4,100,94,69,30.10,30.01,7,1,7,0.01
2013-1-8,84.5,75.3,68.8,76.8,72.1,68.8,100,91,67,30.14,30.01,12,2,12,0.00
2013-1-9,84.7,77.7,74.4,73.6,71.9,69.4,94,83,66,30.21,30.09,15,4,17,0.00
2013-1-10,83.4,76.2,70.9,71.5,67.6,59.6,91,76,46,30.23,30.11,16,3,16,0.01
2013-1-11,83.6,75.4,69.8,71.4,68.8,66.9,98,81,60,30.19,30.09,14,3,14,0.00
2013-1-12,83.8,74.4,66.4,72.2,68.6,66.0,100,83,59,30.12,30.03,13,2,13,0.00
2013-1-13,85.3,73.9,66.1,70.1,66.6,61.4,100,79,50,30.06,30.00,14,2,14,0.00
2013-1-14,84.3,72.2,64.3,67.3,65.0,61.5,100,80,51,30.11,30.05,14,1,14,0.00
2013-1-15,83.0,72.0,64.7,72.3,67.4,64.7,100,87,61,30.07,29.99,12,1,12,0.00
2013-1-16,84.1,71.4,61.8,73.8,67.7,61.8,100,89,62,30.04,29.95,12,1,12,0.00
2013-1-17,82.4,70.8,60.1,74.7,67.2,54.4,100,89,69,30.04,29.91,18,2,18,0.00
2013-1-18,73.5,63.8,53.8,60.9,54.2,47.9,85,72,57,30.17,30.04,13,3,13,0.00
2013-1-19,72.8,68.4,63.4,71.2,65.4,57.9,100,91,67,30.16,30.03,7,1,7,0.16
2013-1-20,83.6,71.0,64.2,71.5,67.3,64.2,100,89,55,30.08,29.94,10,1,10,0.24
2013-1-21,83.8,72.2,65.5,74.4,68.7,65.5,100,90,64,30.01,29.90,13,1,13,0.24
2013-1-22,78.3,67.8,61.2,66.3,60.7,56.2,100,80,55,30.15,29.95,16,3,16,0.02
2013-1-23,78.5,66.4,59.6,61.1,57.0,52.8,92,73,44,30.23,30.13,12,2,12,0.00
2013-1-24,79.8,66.2,56.7,58.0,54.7,48.3,96,69,42,30.23,30.13,13,2,13,0.00
2013-1-25,80.1,66.3,56.2,61.4,56.8,53.3,98,74,44,30.23,30.11,11,2,11,0.00
2013-1-26,82.0,67.1,57.0,62.8,59.6,53.2,100,80,47,30.19,30.10,10,1,10,0.01
2013-1-27,80.9,70.2,60.5,65.0,62.2,59.8,100,78,52,30.22,30.13,14,2,14,0.02
2013-1-28,83.8,74.9,68.1,67.7,64.6,61.5,87,71,50,30.25,30.16,16,3,16,0.00
2013-1-29,82.4,74.0,65.6,71.3,67.8,65.0,100,82,63,30.17,30.06,13,2,13,0.00
2013-1-30,84.9,75.0,68.9,70.3,67.0,64.5,97,77,56,30.06,29.91,17,2,17,0.00
2013-1-31,72.3,66.6,58.4,72.1,61.0,43.8,100,83,56,30.12,29.89,17,2,17,0.00
2013-2-1,76.7,62.6,51.7,57.1,49.5,38.5,78,63,47,30.21,30.09,16,4,16,0.00
2013-2-2,78.1,64.3,53.9,56.8,50.5,40.2,96,63,41,30.19,30.06,13,2,13,0.00
2013-2-3,77.4,63.2,53.1,57.5,50.4,36.2,100,68,25,30.11,30.00,13,2,13,0.00
2013-2-4,78.5,62.1,48.0,57.2,49.7,40.0,97,68,31,30.08,29.96,11,1,11,0.00
2013-2-5,82.4,66.8,53.1,64.3,59.1,53.1,100,80,44,30.02,29.94,9,1,9,0.00
2013-2-6,81.1,69.9,60.1,68.1,63.7,60.1,100,82,59,30.04,29.96,11,1,11,0.00
2013-2-7,86.1,72.9,61.6,67.8,64.4,61.6,100,77,46,30.01,29.88,11,1,11,0.00
2013-2-8,84.9,74.6,67.6,72.7,69.5,60.3,100,86,58,29.97,29.85,14,2,14,0.00
2013-2-9,84.9,71.2,62.3,69.4,64.0,59.8,100,79,53,30.11,29.95,13,3,13,0.00
2013-2-10,77.6,70.9,64.2,68.7,63.0,57.8,93,76,64,30.19,30.08,17,4,17,0.02
2013-2-11,81.8,72.1,63.9,68.3,64.9,61.5,97,79,60,30.16,30.05,14,2,14,0.00
2013-2-12,88.0,73.8,62.1,71.4,66.8,61.0,100,82,45,30.06,29.91,12,1,12,0.00
2013-2-13,88.8,76.8,67.9,74.8,70.6,67.9,100,83,54,29.95,29.83,16,2,16,0.00
2013-2-14,85.7,72.4,62.6,75.5,69.8,62.6,100,92,64,29.95,29.80,22,3,22,0.48
2013-2-15,72.7,66.6,63.1,71.4,66.3,63.1,100,99,90,29.96,29.88,11,1,11,0.47
2013-2-16,75.3,65.3,53.2,66.6,57.9,45.5,100,80,39,30.02,29.82,18,4,18,0.01
2013-2-17,62.0,52.4,44.6,48.1,32.4,20.6,86,50,24,30.25,30.02,23,5,23,0.00
2013-2-18,72.0,59.8,46.4,56.9,46.3,34.5,74,62,42,30.25,30.13,16,4,16,0.00
2013-2-19,81.4,70.7,57.5,69.1,62.8,55.3,100,77,57,30.14,30.02,15,2,15,0.00
2013-2-20,84.0,71.6,64.3,68.4,65.6,58.7,100,84,44,30.05,29.95,11,2,11,0.00
2013-2-21,84.7,73.0,64.2,71.2,66.6,64.2,100,82,55,30.03,29.93,12,1,12,0.00
2013-2-22,84.7,75.9,69.4,73.4,71.0,67.5,100,86,63,30.03,29.95,14,3,18,0.00
2013-2-23,88.6,78.2,71.6,74.2,71.8,68.9,100,82,55,29.99,29.85,11,2,11,0.00
2013-2-24,89.7,77.7,71.5,76.3,71.5,62.3,100,84,42,29.94,29.83,13,1,13,0.12
2013-2-25,89.3,76.2,67.6,77.7,71.1,67.4,100,86,53,29.86,29.74,10,1,10,0.18
2013-2-26,87.0,78.9,73.5,75.7,72.2,68.4,100,81,57,29.83,29.74,18,3,18,0.00
2013-2-27,76.7,71.0,65.3,75.8,68.3,63.4,100,92,66,29.91,29.80,12,2,12,0.15
2013-2-28,70.6,64.8,59.8,65.5,57.1,50.2,100,78,54,29.94,29.85,11,2,11,0.00
2013-3-1,66.8,62.2,57.8,59.6,53.7,48.7,94,74,61,29.93,29.84,13,3,13,0.02
2013-3-2,68.3,58.3,52.2,49.8,44.4,39.3,75,61,41,29.97,29.89,17,4,17,0.00
2013-3-3,65.0,55.2,49.2,49.0,44.8,41.0,95,70,44,30.08,29.90,16,4,16,0.03
2013-3-4,73.3,56.2,42.9,44.1,39.0,33.1,83,56,25,30.15,30.05,14,3,14,0.00
2013-3-5,80.1,63.5,47.3,59.3,53.7,44.6,100,74,42,30.11,30.02,12,1,12,0.00
2013-3-6,78.6,65.3,52.3,68.0,52.9,28.9,100,69,27,30.05,29.89,19,4,19,0.02
2013-3-7,76.0,60.0,46.5,55.5,45.1,37.5,92,61,32,30.12,30.01,12,2,12,0.00
2013-3-8,81.4,64.9,50.8,57.0,51.1,40.9,100,68,27,30.13,30.03,13,2,13,0.00
2013-3-9,80.7,65.6,52.6,59.0,54.6,50.5,99,70,43,30.12,30.04,14,2,14,0.00
2013-3-10,77.7,70.0,62.3,62.3,56.4,53.5,79,63,47,30.10,30.00,19,3,19,0.00
2013-3-11,80.1,72.3,66.0,63.4,61.4,57.1,83,69,51,30.05,29.90,14,3,14,0.00
2013-3-12,83.8,73.1,64.7,70.5,66.2,62.0,96,80,57,29.94,29.85,15,2,15,0.00
2013-3-13,81.4,67.7,56.5,67.6,55.4,42.5,100,69,30,30.06,29.92,14,3,14,0.00
2013-3-14,77.9,62.9,53.9,55.2,47.0,36.8,96,61,27,30.14,30.03,17,3,17,0.00
2013-3-15,78.6,63.9,52.2,54.4,50.4,45.6,86,64,35,30.19,30.08,12,3,12,0.00
2013-3-16,79.9,65.5,52.3,61.8,54.4,52.0,100,71,43,30.13,30.03,13,1,13,0.00
2013-3-17,79.9,67.8,56.0,64.7,59.0,55.2,100,76,49,30.09,29.97,13,1,13,0.00
2013-3-18,83.2,71.6,62.7,72.0,66.5,60.3,100,85,61,30.02,29.90,15,1,15,0.05
2013-3-19,82.0,73.5,68.3,71.6,69.3,65.3,100,88,61,29.96,29.76,12,2,12,0.06
2013-3-20,88.8,73.9,63.4,73.1,64.7,59.0,100,77,43,29.92,29.74,18,2,18,0.01
2013-3-21,80.3,68.6,59.8,64.2,53.9,40.1,100,65,29,29.88,29.77,14,3,14,0.00
2013-3-22,79.4,68.3,55.3,71.0,61.2,51.2,100,80,54,29.94,29.83,13,2,13,0.00
2013-3-23,91.6,79.1,71.1,77.4,72.1,68.7,100,82,50,29.93,29.74,13,1,13,0.03
2013-3-24,89.7,80.1,74.2,76.6,73.1,68.9,100,81,55,29.83,29.64,26,5,26,0.01
2013-3-25,82.2,74.8,62.9,75.5,62.1,40.5,100,69,36,29.94,29.68,17,4,17,0.01
2013-3-26,70.4,61.5,51.3,47.8,40.5,32.0,72,48,25,30.16,29.92,17,5,17,0.00
2013-3-27,74.2,58.3,45.7,47.4,41.1,37.2,83,56,30,30.19,30.11,15,4,15,0.00
2013-3-28,79.0,62.8,50.2,51.5,46.0,38.7,87,58,25,30.20,30.09,12,3,12,0.00
2013-3-29,78.3,66.3,55.9,54.3,50.4,43.2,75,58,37,30.22,30.14,14,3,14,0.00
2013-3-30,79.2,67.3,54.8,59.5,53.6,46.3,100,65,35,30.19,30.10,13,2,13,0.00
2013-3-31,83.2,70.7,58.6,67.1,62.4,54.8,100,77,53,30.13,29.99,17,2,17,0.00
2013-4-1,87.2,75.7,66.6,73.9,67.4,62.1,100,78,46,30.00,29.89,16,2,18,0.01
2013-4-2,88.2,74.4,64.8,70.5,66.3,61.5,100,79,44,30.02,29.93,10,2,10,0.00
2013-4-3,87.8,76.3,66.4,72.5,68.5,66.1,100,79,52,30.00,29.92,14,3,14,0.00
2013-4-4,88.2,76.0,68.3,73.4,70.9,68.3,100,86,55,29.99,29.85,17,2,17,1.56
2013-4-5,72.1,68.0,66.1,71.6,67.8,65.9,100,99,91,29.92,29.76,15,2,15,1.08
2013-4-6,82.0,69.1,59.2,67.9,62.4,59.2,100,81,58,30.02,29.86,14,3,14,0.02
2013-4-7,79.2,72.6,67.4,67.5,64.1,61.9,88,75,59,30.08,29.95,13,3,13,0.01
2013-4-8,84.7,72.9,60.7,69.5,62.1,52.3,100,72,35,30.06,29.98,12,2,13,0.00
2013-4-9,82.4,74.2,65.2,71.7,66.7,64.1,100,79,61,30.08,29.99,15,3,15,0.01
2013-4-10,87.8,77.8,70.1,73.7,70.9,66.8,95,80,57,30.04,29.93,15,4,15,0.00
2013-4-11,87.4,79.0,74.7,75.2,73.2,71.6,95,83,62,29.95,29.83,16,4,16,0.02
2013-4-12,90.3,81.2,76.8,78.0,75.4,72.9,96,83,60,29.89,29.80,16,1,16,0.04
2013-4-13,90.7,78.3,73.3,78.0,74.8,72.3,100,90,57,29.91,29.82,8,1,9,0.13
2013-4-14,91.2,80.1,72.5,79.3,74.1,71.2,100,84,55,29.90,29.82,14,2,14,0.01
2013-4-15,95.4,78.7,71.6,79.0,74.9,71.6,100,90,51,30.00,29.86,11,1,11,0.59
2013-4-16,88.0,78.9,71.3,80.6,73.6,70.6,100,85,63,30.06,29.96,14,3,14,0.01
2013-4-17,87.2,79.0,73.2,73.6,70.7,68.2,97,77,57,30.05,29.95,13,3,13,0.00
2013-4-18,89.3,80.2,72.5,74.5,71.5,65.9,98,76,53,29.99,29.91,15,3,15,0.00
2013-4-19,91.6,82.3,76.7,75.8,72.7,69.1,94,74,52,29.98,29.90,17,3,17,0.02
2013-4-20,94.0,79.4,74.4,79.1,74.6,65.7,100,88,43,30.02,29.86,16,2,16,0.28
2013-4-21,87.6,78.1,72.3,75.2,73.3,68.0,100,87,56,30.02,29.92,14,2,14,0.03
2013-4-22,87.0,74.5,69.1,74.8,71.5,69.1,100,92,58,29.99,29.85,12,2,12,0.81
2013-4-23,86.3,75.7,67.3,75.2,67.3,62.5,100,78,52,30.02,29.89,17,3,17,0.02
2013-4-24,86.3,76.9,66.3,67.9,64.4,61.6,97,67,48,30.06,29.97,13,3,13,0.00
2013-4-25,87.2,76.8,67.1,65.9,63.1,60.5,91,65,44,30.13,30.02,13,2,13,0.00
2013-4-26,85.9,75.5,64.3,68.9,64.9,61.7,100,71,50,30.16,30.05,14,3,14,0.00
2013-4-27,84.5,77.0,68.9,69.1,64.9,60.6,84,67,48,30.14,30.02,15,4,15,0.00
2013-4-28,85.5,77.5,72.0,66.9,64.5,60.2,79,65,48,30.05,29.93,15,4,15,0.00
2013-4-29,85.3,77.7,73.2,73.4,68.3,64.2,85,73,61,29.97,29.91,14,3,14,0.02
2013-4-30,86.4,74.5,70.8,76.1,71.9,69.5,100,92,60,29.93,29.86,5,0,18,0.29
2013-5-1,88.2,75.1,69.9,77.9,72.3,69.9,100,92,61,29.93,29.85,12,1,12,0.26
2013-5-2,81.4,72.6,69.3,77.4,71.6,69.3,100,97,77,29.88,29.72,12,2,16,1.66
2013-5-3,87.6,75.4,67.9,73.9,70.5,66.4,100,87,52,29.76,29.62,11,2,11,0.06
2013-5-4,88.0,77.1,68.9,73.0,68.9,64.8,100,79,50,29.75,29.63,16,4,16,0.01
2013-5-5,84.7,74.6,66.8,69.8,64.4,55.4,100,73,41,29.87,29.70,15,3,15,0.00
2013-5-6,85.9,73.7,60.4,66.4,61.0,55.7,95,67,41,29.95,29.85,12,2,12,0.00
2013-5-7,85.9,74.4,63.7,67.1,61.8,57.4,98,68,39,30.00,29.91,15,3,15,0.00
2013-5-8,88.2,75.3,61.8,67.1,62.1,55.2,100,68,35,30.08,29.98,11,1,11,0.00
2013-5-9,92.3,78.0,65.5,75.1,68.2,59.3,98,74,47,30.07,29.99,11,1,11,0.00
2013-5-10,92.1,81.6,72.8,75.5,72.8,69.0,96,76,49,30.06,29.96,14,2,14,0.00
2013-5-11,93.8,80.0,72.7,78.8,74.3,69.7,100,84,54,30.00,29.91,11,1,11,0.21
2013-5-12,92.9,78.9,72.0,78.5,73.3,68.3,100,85,45,30.00,29.88,11,1,11,0.82
2013-5-13,90.3,79.1,70.8,76.7,71.2,65.6,100,79,55,30.02,29.93,13,2,13,0.01
2013-5-14,84.7,77.1,69.8,68.8,62.8,56.6,90,63,43,30.11,30.00,14,3,14,0.00
2013-5-15,79.4,68.5,65.0,66.3,62.3,59.2,95,82,53,30.11,30.06,11,1,11,0.00
2013-5-16,76.1,74.8,73.5,65.0,64.5,64.1,73,70,67,29.99,29.98,8,2,8,0.00
2013-5-17,92.7,79.3,69.1,72.9,69.7,64.2,97,74,42,30.02,29.95,13,2,13,0.00
2013-5-18,86.7,78.3,72.5,79.7,72.7,69.7,100,83,63,30.03,29.96,13,1,13,0.25
2013-5-19,88.6,79.6,71.1,75.1,70.8,66.6,100,76,51,30.03,29.93,13,2,13,0.00
2013-5-20,79.0,75.5,69.8,76.8,73.8,69.6,100,94,81,30.01,29.91,13,1,13,3.04
2013-5-21,85.3,75.4,69.8,77.4,72.5,69.8,100,91,65,29.99,29.86,15,2,15,0.50
2013-5-22,87.4,76.3,71.8,79.1,74.5,70.7,100,95,71,29.90,29.83,17,1,17,0.86
2013-5-23,95.6,82.2,72.5,78.3,73.4,64.6,100,79,39,29.94,29.85,14,2,14,0.00
2013-5-24,95.1,82.3,74.0,78.2,74.7,66.7,100,80,44,30.00,29.88,14,2,14,0.08
2013-5-25,89.3,81.2,74.6,77.4,70.2,64.6,99,72,47,30.09,29.97,15,4,15,0.00
2013-5-26,87.0,78.9,70.1,69.1,65.9,62.9,89,65,47,30.11,30.04,15,4,15,0.00
2013-5-27,86.3,79.9,74.0,74.0,70.7,64.6,87,74,62,30.09,29.99,19,5,19,0.00
2013-5-28,83.6,78.7,74.9,76.7,73.9,71.6,100,86,71,30.04,29.97,16,5,16,0.38
2013-5-29,80.7,75.6,71.8,77.9,73.8,71.3,100,94,80,30.03,29.96,20,4,20,0.99
2013-5-30,85.1,78.9,73.7,77.2,73.6,71.1,100,84,71,30.00,29.93,20,6,20,0.06
2013-5-31,87.6,79.3,74.2,78.0,75.6,73.5,100,89,65,29.99,29.93,14,3,14,0.41
2013-6-1,84.0,76.7,73.7,80.5,76.3,73.7,100,99,82,29.97,29.89,10,1,10,1.75
2013-6-2,91.6,78.6,72.0,81.1,75.6,71.6,100,91,58,29.94,29.85,10,1,10,1.09
2013-6-3,89.9,80.4,72.8,79.8,74.9,72.1,100,85,60,29.97,29.85,9,1,9,0.00
2013-6-4,87.8,79.5,73.9,81.2,76.1,72.0,100,90,63,29.99,29.90,7,1,7,0.29
2013-6-5,84.7,80.9,78.3,79.5,78.0,76.6,99,91,80,29.96,29.83,12,2,12,0.03
2013-6-6,90.3,80.4,75.6,84.0,77.9,73.5,100,93,68,29.85,29.71,18,3,18,0.72
2013-6-7,87.6,77.3,74.2,81.8,76.2,74.2,100,97,71,29.94,29.78,23,2,23,3.02
2013-6-8,92.3,81.0,74.4,82.2,76.8,74.4,100,88,63,30.04,29.90,11,1,11,0.00
2013-6-9,92.1,83.2,78.5,78.1,76.1,74.0,95,80,61,30.05,29.97,16,3,16,0.00
2013-6-10,93.2,83.7,79.4,79.1,77.1,74.9,94,82,59,30.03,29.94,13,3,13,0.00
2013-6-11,93.6,83.5,78.6,81.7,78.1,74.2,100,85,55,30.03,29.94,9,2,9,0.22
2013-6-12,91.2,80.7,76.7,79.4,76.8,74.2,100,89,59,30.02,29.95,10,0,10,0.00
2013-6-13,92.7,80.3,74.6,79.9,74.8,68.8,100,85,53,30.00,29.88,11,1,11,0.00
2013-6-14,94.7,80.7,73.5,78.1,74.9,72.0,100,85,50,29.91,29.82,18,2,18,0.40
2013-6-15,96.6,83.1,74.7,79.8,75.6,69.7,100,81,49,29.99,29.87,11,2,11,0.01
2013-6-16,94.0,83.9,75.6,80.5,76.3,72.6,100,80,52,30.02,29.95,11,2,11,0.01
2013-6-17,95.4,85.5,77.0,79.1,75.9,72.5,100,75,51,30.02,29.94,13,2,13,0.00
2013-6-18,94.5,85.2,77.4,79.9,76.5,74.2,100,77,54,30.01,29.92,13,2,13,0.00
2013-6-19,95.1,85.3,78.5,80.0,76.5,73.7,99,77,52,29.99,29.91,11,1,11,0.00
2013-6-20,95.1,81.9,73.2,79.8,74.4,67.9,100,80,50,30.03,29.96,14,1,14,0.30
2013-6-21,94.3,84.4,76.5,79.1,74.1,68.5,100,74,46,30.05,29.97,12,2,13,0.00
2013-6-22,94.3,84.8,77.0,76.5,74.4,70.8,94,73,50,30.04,29.97,13,3,13,0.00
2013-6-23,91.6,83.3,75.6,81.0,74.8,70.9,100,77,55,30.06,29.99,15,3,15,0.24
2013-6-24,92.5,83.2,76.5,80.3,75.4,72.1,100,79,54,30.10,30.01,14,3,14,0.38
2013-6-25,91.8,83.5,78.1,79.9,75.7,72.4,93,78,58,30.06,29.97,14,3,14,0.16
2013-6-26,93.4,83.9,76.0,81.5,76.2,71.0,100,79,50,30.01,29.94,13,2,13,0.23
2013-6-27,91.8,82.9,77.9,79.1,76.0,72.5,99,81,58,29.99,29.90,9,1,9,0.00
2013-6-28,93.6,82.1,75.8,82.7,76.6,72.1,100,85,52,29.94,29.80,15,1,15,1.36
2013-6-29,95.4,81.1,75.6,81.8,76.8,72.6,100,89,50,29.88,29.77,11,1,11,0.59
2013-6-30,90.5,80.8,76.8,82.5,77.3,72.4,100,90,62,29.89,29.79,15,1,15,0.79
2013-7-1,92.7,80.7,76.3,80.9,77.4,73.9,100,91,61,29.97,29.85,14,1,14,0.46
2013-7-2,89.9,80.8,76.3,82.2,78.2,74.8,100,92,69,30.05,29.91,14,1,14,0.14
2013-7-3,91.0,81.7,76.1,80.5,77.1,73.4,100,87,63,30.07,29.98,21,3,21,0.21
2013-7-4,91.0,83.0,75.6,78.6,76.0,71.3,100,81,56,30.09,30.00,16,4,16,0.13
2013-7-5,87.8,81.3,75.6,80.0,76.9,74.7,100,87,70,30.08,29.99,16,3,16,0.15
2013-7-6,90.5,83.2,78.8,78.6,75.6,72.5,91,79,56,30.05,29.97,16,4,16,0.05
2013-7-7,89.9,83.5,77.0,78.1,75.7,72.3,98,78,61,30.03,29.96,16,4,16,0.00
2013-7-8,91.2,83.2,76.1,76.3,74.3,71.8,94,76,55,30.08,30.01,15,2,15,0.07
2013-7-9,89.7,81.8,75.3,79.1,73.9,69.6,100,79,56,30.07,29.99,12,2,12,0.01
2013-7-10,87.6,78.8,74.2,78.9,75.7,72.0,100,91,68,30.02,29.94,10,1,10,0.35
2013-7-11,94.5,81.9,74.7,81.8,75.5,71.5,100,83,53,29.98,29.88,14,1,14,0.01
2013-7-12,93.2,82.1,75.8,79.6,75.5,70.2,100,82,49,29.92,29.83,10,0,10,0.00
2013-7-13,87.8,76.7,72.8,77.8,74.3,71.5,100,93,66,29.96,29.85,13,1,13,2.55
2013-7-14,92.3,78.4,72.3,80.7,74.2,72.3,100,89,56,30.03,29.92,16,2,16,1.68
2013-7-15,92.5,81.0,72.8,80.9,73.8,69.2,100,81,49,30.03,29.95,13,2,13,0.02
2013-7-16,85.1,78.3,73.7,77.8,73.9,70.2,100,87,63,30.09,29.98,20,3,20,0.22
2013-7-17,78.6,74.5,71.8,77.0,74.1,71.2,100,99,85,30.09,29.98,18,1,18,3.64
2013-7-18,86.3,76.4,72.7,80.7,75.0,71.2,100,96,71,30.07,29.99,19,1,20,0.84
2013-7-19,92.3,81.3,73.5,82.0,76.5,73.5,100,87,60,30.07,29.98,13,2,13,0.01
2013-7-20,89.7,82.0,76.0,81.8,77.7,72.0,100,88,60,30.06,29.97,13,1,13,0.02
2013-7-21,92.9,82.2,76.0,82.0,77.8,72.6,100,88,62,30.08,29.99,13,1,13,0.01
2013-7-22,96.6,85.1,77.6,81.2,76.6,71.7,100,78,49,30.08,30.00,10,1,11,0.00
2013-7-23,97.5,85.0,75.8,81.1,76.2,69.5,100,78,42,30.05,29.91,11,1,11,0.55
2013-7-24,94.5,85.0,78.1,79.8,76.1,69.7,100,77,46,29.97,29.85,16,2,16,0.01
2013-7-25,94.7,85.5,76.8,78.4,75.4,72.9,97,73,51,29.96,29.86,14,3,14,0.00
2013-7-26,95.4,83.5,76.0,79.2,77.3,73.2,100,83,50,29.97,29.86,17,3,17,0.48
2013-7-27,91.6,80.8,77.2,81.0,77.9,74.5,100,92,63,29.94,29.88,12,1,12,0.06
2013-7-28,90.5,82.3,76.8,80.6,77.1,72.5,100,85,64,30.01,29.89,13,1,13,0.01
2013-7-29,94.3,83.4,76.5,80.9,77.5,74.3,100,84,55,30.07,29.96,12,2,12,0.00
2013-7-30,93.4,84.6,77.2,83.1,78.3,74.4,100,83,59,30.10,30.02,12,2,12,0.39
2013-7-31,92.5,85.2,78.8,80.2,76.6,73.3,99,77,56,30.05,29.94,14,3,14,0.00
2013-8-1,91.8,84.5,78.6,76.7,75.2,71.4,92,75,55,30.00,29.88,14,3,14,0.00
2013-8-2,96.6,82.7,76.5,79.3,75.5,70.1,100,81,46,30.00,29.86,14,1,14,0.16
2013-8-3,89.9,78.6,74.0,80.3,77.2,73.8,100,96,68,30.06,29.96,10,0,10,0.38
2013-8-4,97.1,83.5,76.0,81.6,76.5,69.3,100,83,43,30.05,29.92,12,1,12,0.05
2013-8-5,94.0,82.2,76.8,82.4,77.1,71.8,100,86,56,29.98,29.88,14,2,14,0.02
2013-8-6,94.7,83.0,75.8,82.1,77.5,73.9,100,85,56,29.93,29.82,10,1,15,0.42
2013-8-7,93.6,83.4,75.6,82.8,76.7,74.2,100,82,57,29.92,29.84,13,2,13,0.01
2013-8-8,93.2,84.7,79.8,80.3,76.4,69.1,95,77,52,29.95,29.86,15,3,15,0.07
2013-8-9,89.9,82.6,77.0,79.1,75.3,70.7,100,79,57,30.00,29.89,14,2,14,0.06
2013-8-10,94.0,85.5,79.2,78.2,76.3,72.2,93,76,51,30.05,29.97,15,3,15,0.00
2013-8-11,94.3,86.0,79.8,78.9,76.8,73.7,93,75,56,30.07,30.00,13,3,13,0.00
2013-8-12,93.2,84.8,76.8,77.4,75.9,72.5,98,76,55,30.05,29.95,15,2,15,0.00
2013-8-13,95.6,85.9,78.3,80.3,75.9,70.5,100,74,46,29.99,29.90,11,2,11,0.00
2013-8-14,96.1,85.3,76.8,80.5,75.8,71.6,100,76,48,29.97,29.86,13,2,13,0.00
2013-8-15,89.7,81.9,76.8,80.8,78.1,75.7,100,89,69,30.00,29.90,10,1,10,0.08
2013-8-16,95.9,85.9,78.6,82.1,78.0,74.0,100,79,52,29.99,29.91,12,2,12,0.00
2013-8-17,93.8,86.6,80.7,80.5,78.0,73.5,94,77,53,30.02,29.93,14,2,14,0.00
2013-8-18,92.1,85.5,80.7,82.2,77.7,75.8,91,78,61,30.01,29.92,17,3,17,0.03
2013-8-19,93.4,84.7,78.5,80.9,77.3,73.7,100,80,56,30.01,29.90,14,3,14,0.03
2013-8-20,93.2,85.3,77.0,78.2,76.3,73.0,100,75,54,30.00,29.92,14,3,14,0.91
2013-8-21,90.5,82.4,77.6,82.2,79.0,76.8,100,90,65,30.01,29.93,15,2,15,0.18
2013-8-22,93.6,84.7,76.7,82.2,77.8,75.2,100,81,58,30.01,29.89,16,3,16,0.03
2013-8-23,94.3,84.2,77.4,80.8,77.1,74.1,100,81,53,29.95,29.87,13,2,13,0.00
2013-8-24,92.5,83.5,76.7,81.1,77.2,74.8,100,83,58,30.05,29.91,12,1,12,0.11
2013-8-25,88.6,80.4,76.5,79.9,76.8,73.8,100,90,64,30.08,29.97,10,2,10,0.18
2013-8-26,92.5,82.3,77.2,80.0,75.7,72.3,100,82,57,30.06,29.94,11,1,11,0.00
2013-8-27,90.5,80.5,74.4,80.2,75.1,72.0,100,85,57,29.99,29.91,11,1,11,0.03
2013-8-28,91.4,80.2,74.9,79.7,75.6,73.3,100,87,58,29.99,29.89,14,1,14,0.21
2013-8-29,95.4,83.7,74.6,77.9,75.8,72.8,100,79,52,29.96,29.86,11,2,11,0.00
2013-8-30,95.9,84.7,75.1,80.1,75.0,68.1,100,75,44,29.94,29.83,17,1,17,0.00
2013-8-31,93.6,80.3,74.6,79.0,75.5,72.7,100,87,53,29.92,29.85,12,1,12,0.23
2013-9-1,91.6,79.5,73.5,81.6,76.7,72.3,100,92,58,29.94,29.87,9,0,9,0.04
2013-9-2,95.6,78.8,73.7,82.8,76.1,73.5,100,93,51,29.99,29.88,16,0,16,1.31
2013-9-3,91.2,80.0,72.5,83.8,76.7,72.5,100,91,66,29.96,29.86,10,1,10,0.14
2013-9-4,87.8,82.2,77.4,81.6,78.3,76.5,100,89,71,30.00,29.88,13,1,13,0.00
2013-9-5,93.2,83.6,78.1,81.4,78.0,74.7,100,84,58,30.00,29.93,12,2,12,0.02
2013-9-6,96.8,85.3,77.2,82.8,77.2,73.2,100,79,49,29.97,29.86,12,2,12,0.00
2013-9-7,89.9,81.7,77.0,79.6,77.2,74.5,96,87,65,29.92,29.85,11,1,11,0.00
2013-9-8,93.6,80.7,73.5,79.2,76.4,71.9,100,89,52,29.89,29.80,9,1,9,0.28
2013-9-9,92.9,82.2,73.7,79.9,75.5,73.2,100,82,56,29.93,29.83,13,2,15,0.12
2013-9-10,91.8,81.2,75.3,80.8,76.7,73.8,100,88,58,29.97,29.89,14,2,14,0.05
2013-9-11,83.8,79.5,76.1,80.9,76.8,74.1,100,92,79,29.99,29.90,12,2,12,0.28
2013-9-12,85.7,79.9,75.4,80.5,77.3,75.3,100,92,74,29.96,29.82,5,0,5,0.02
2013-9-13,96.8,83.9,73.9,81.1,75.5,71.3,100,79,46,29.84,29.74,10,1,10,0.00
2013-9-14,96.3,84.5,75.8,80.9,75.5,69.1,100,77,42,29.91,29.76,10,2,10,0.00
2013-9-15,88.2,80.3,77.6,81.8,78.5,75.1,100,95,77,29.99,29.86,13,1,13,0.42
2013-9-16,84.9,80.0,76.7,80.8,78.3,75.4,100,95,82,29.98,29.90,12,2,12,0.14
2013-9-17,84.7,78.6,74.7,82.2,77.5,74.7,100,97,82,29.96,29.85,11,1,11,1.01
2013-9-18,90.5,80.3,75.8,79.6,76.4,73.2,100,89,64,29.95,29.85,12,2,12,0.02
2013-9-19,91.8,80.4,74.6,80.9,76.1,74.2,100,88,59,29.94,29.86,13,2,13,0.71
2013-9-20,91.2,80.6,72.1,77.3,73.2,66.8,100,81,49,29.93,29.83,15,2,15,0.02
2013-9-21,93.2,80.7,72.7,80.9,75.7,72.7,100,86,56,29.85,29.71,10,1,10,0.22
2013-9-22,93.8,83.4,75.3,80.5,76.4,72.4,100,82,51,29.80,29.69,10,1,10,0.02
2013-9-23,90.3,80.5,77.0,81.4,78.6,75.7,100,94,66,29.91,29.80,17,0,21,0.62
2013-9-24,92.5,82.0,75.6,83.2,76.4,71.3,100,85,58,29.91,29.81,12,2,12,0.02
2013-9-25,88.8,80.2,74.6,81.9,76.6,72.4,100,89,67,29.85,29.75,16,1,16,0.16
2013-9-26,90.1,80.6,76.1,82.9,78.5,76.1,100,94,68,29.81,29.74,18,2,18,0.41
2013-9-27,93.8,82.0,74.6,79.1,75.0,68.7,100,82,47,29.85,29.76,14,2,14,0.00
2013-9-28,90.5,80.8,73.7,77.8,74.6,71.8,100,83,57,29.91,29.81,14,2,14,1.27
2013-9-29,92.7,80.5,72.5,79.2,72.6,68.5,100,80,47,29.90,29.81,12,2,12,0.01
2013-9-30,92.9,81.5,71.6,77.3,72.5,70.0,100,76,50,29.94,29.83,12,2,12,0.00
2013-10-1,91.0,83.0,74.4,76.9,73.3,70.1,98,74,56,29.96,29.89,13,3,13,0.00
2013-10-2,85.8,80.9,79.5,78.1,74.4,73.0,95,81,68,29.97,29.90,12,3,15,0.01
2013-10-3,89.3,81.6,75.4,77.2,74.9,72.1,100,81,66,29.99,29.88,13,2,13,0.00
2013-10-4,91.8,81.3,73.2,78.5,73.1,70.5,100,78,54,29.99,29.92,11,2,11,0.00
2013-10-5,94.9,81.7,71.8,77.1,72.1,65.0,100,76,43,29.97,29.86,11,2,11,0.00
2013-10-6,95.1,81.9,74.2,79.8,73.3,67.2,100,78,43,29.90,29.80,10,1,10,0.12
2013-10-7,92.9,79.4,73.0,78.2,74.3,71.2,100,86,54,29.83,29.75,20,1,20,0.63
2013-10-8,89.3,81.1,74.7,80.1,75.4,71.8,100,84,63,29.87,29.79,11,2,11,0.03
2013-10-9,89.9,78.8,71.6,77.9,74.8,71.4,100,88,65,29.93,29.84,14,2,14,0.00
2013-10-10,91.8,80.2,71.8,76.5,72.9,70.5,100,80,53,29.94,29.87,13,2,13,0.00
2013-10-11,92.1,79.2,69.8,75.1,69.9,66.5,100,76,46,29.94,29.88,13,2,13,0.00
2013-10-12,90.3,77.7,67.1,74.8,69.1,66.8,100,77,48,29.96,29.88,10,1,10,0.00
2013-10-13,89.0,78.5,70.8,75.6,69.0,63.7,100,76,45,29.99,29.89,14,2,14,0.00
2013-10-14,88.2,78.3,69.9,73.7,69.8,67.7,100,77,52,29.95,29.83,11,1,11,0.00
2013-10-15,92.1,78.6,70.6,76.3,71.2,69.2,100,80,50,29.89,29.80,11,1,11,0.00
2013-10-16,91.4,78.2,70.1,75.0,71.0,68.6,100,80,51,29.88,29.82,0,0,0,0.00
2013-10-17,92.1,79.5,70.9,77.0,72.2,69.8,100,80,51,29.90,29.83,0,0,0,0.00
2013-10-18,91.8,80.2,70.6,77.8,72.8,70.6,100,80,52,29.92,29.83,0,0,0,0.00
2013-10-19,94.5,82.2,71.8,78.1,73.9,71.8,100,78,52,29.90,29.80,10,1,10,0.00
2013-10-20,96.6,82.2,76.0,79.7,76.3,68.0,100,85,43,29.90,29.81,11,1,11,0.46
2013-10-21,93.8,82.5,75.3,81.6,76.6,73.8,100,84,55,29.94,29.83,11,1,11,0.00
2013-10-22,93.6,83.2,74.6,84.0,76.7,74.6,100,83,55,29.90,29.77,11,1,11,0.05
2013-10-23,89.3,81.4,76.0,78.8,74.9,69.2,100,82,62,29.89,29.76,12,2,12,0.00
2013-10-24,79.9,76.3,71.8,70.6,67.3,63.8,85,74,63,30.03,29.86,12,2,12,0.00
2013-10-25,85.7,76.5,69.3,68.1,65.7,61.4,90,71,47,30.08,30.00,15,3,15,0.00
2013-10-26,87.4,75.3,66.9,68.6,65.7,63.2,96,74,48,30.08,29.99,13,2,13,0.00
2013-10-27,87.0,75.0,66.0,67.3,64.4,62.0,91,71,45,30.03,29.95,12,2,12,0.00
2013-10-28,88.6,76.2,65.6,72.0,66.0,58.6,100,74,41,30.08,29.99,13,1,13,0.00
2013-10-29,88.2,76.8,66.4,73.1,68.1,64.4,100,77,54,30.10,30.02,16,3,16,0.00
2013-10-30,86.7,79.0,69.4,70.5,67.4,64.5,95,69,50,30.12,30.02,17,4,17,0.00
2013-10-31,88.2,79.0,69.8,77.0,71.1,67.4,100,78,55,30.05,29.93,12,2,12,0.01
2013-11-1,91.8,81.0,72.3,76.5,73.8,71.6,100,80,55,29.94,29.82,11,1,11,0.00
2013-11-2,91.0,79.1,70.6,77.2,71.6,64.2,100,80,47,29.88,29.74,12,2,12,0.00
2013-11-3,85.3,74.0,68.4,68.3,64.3,60.4,89,73,51,29.96,29.83,16,4,16,0.00
2013-11-4,82.4,76.4,72.7,70.9,65.0,57.0,90,69,43,30.02,29.94,19,5,19,0.04
2013-11-5,83.0,78.0,73.9,74.3,69.7,64.9,99,76,60,30.02,29.95,23,6,23,0.10
2013-11-6,87.2,79.0,71.5,71.8,70.4,69.0,93,75,56,30.00,29.92,17,4,17,0.00
2013-11-7,90.5,77.7,69.6,75.2,70.8,66.2,100,82,48,29.95,29.85,10,1,10,0.00
2013-11-8,87.8,76.9,71.1,75.7,72.3,67.9,100,87,55,29.97,29.88,17,3,17,0.26
2013-11-9,80.3,76.3,73.5,76.5,74.2,71.9,100,93,81,30.05,29.94,19,5,19,0.12
2013-11-10,85.3,78.9,72.8,74.3,71.8,68.8,95,79,65,30.05,29.98,14,4,14,0.01
2013-11-11,86.1,76.9,70.3,73.9,69.9,67.2,100,80,59,30.05,29.98,16,2,16,0.00
2013-11-12,88.4,77.1,68.6,74.2,69.2,66.7,100,79,51,30.01,29.90,11,2,11,0.00
2013-11-13,77.2,71.9,68.6,69.4,65.7,57.1,96,81,66,30.14,29.93,16,4,16,0.07
2013-11-14,78.8,72.7,68.9,63.3,59.0,55.7,72,62,51,30.17,30.06,17,6,17,0.00
2013-11-15,84.1,76.9,72.8,72.8,67.1,61.2,96,72,60,30.07,29.96,14,4,14,0.00
2013-11-16,80.7,77.6,73.3,74.7,69.9,60.2,99,78,57,30.03,29.94,12,3,12,0.13
2013-11-17,87.0,78.5,72.0,73.7,71.6,68.4,97,80,61,30.01,29.94,13,2,13,0.00
2013-11-18,86.7,76.8,69.9,76.9,71.7,69.9,100,85,61,29.97,29.85,9,0,9,0.03
2013-11-19,87.5,77.1,71.6,74.8,72.9,70.6,100,88,58,29.88,29.78,3,1,10,0.00
2013-11-20,88.6,77.9,70.3,75.8,73.0,70.3,100,86,62,29.99,29.85,4,1,10,0.00
2013-11-21,85.3,76.3,72.3,77.4,74.1,72.3,100,94,68,30.07,29.98,12,2,12,1.07
2013-11-22,82.8,76.8,72.5,74.4,72.0,69.8,100,86,68,30.08,30.00,17,5,17,0.81
2013-11-23,84.9,77.5,72.8,73.7,71.8,70.7,95,83,65,30.01,29.91,15,2,15,0.00
2013-11-24,86.1,74.7,68.1,73.3,69.3,65.2,100,85,56,30.07,29.92,16,3,16,0.06
2013-11-25,77.0,73.3,71.5,71.8,66.2,61.1,100,79,68,30.13,29.98,18,7,18,0.16
2013-11-26,87.4,78.0,71.8,77.2,74.6,71.8,100,90,66,29.99,29.77,14,3,14,0.14
2013-11-27,78.8,71.6,58.9,77.4,66.1,54.4,100,84,54,30.05,29.73,17,4,17,0.69
2013-11-28,77.2,62.6,48.2,61.4,54.7,46.8,96,77,55,30.18,30.05,17,3,17,0.00
2013-11-29,79.8,69.3,59.5,63.5,60.7,59.0,100,76,52,30.20,30.12,17,3,17,0.00
2013-11-30,80.5,67.8,61.2,72.5,65.4,61.0,100,92,71,30.14,30.04,16,2,16,0.51
2013-12-1,73.9,67.7,61.2,73.6,67.6,61.2,100,100,97,30.04,29.88,10,1,10,0.36
2013-12-2,77.9,67.8,61.0,68.9,64.9,61.0,100,92,58,29.88,29.76,12,2,12,0.01
2013-12-3,82.4,70.4,59.6,68.2,64.1,59.6,100,83,51,29.94,29.83,9,0,9,0.00
2013-12-4,84.5,72.8,64.0,73.3,67.2,64.0,100,84,56,30.03,29.92,8,1,8,0.00
2013-12-5,86.7,74.2,64.5,75.3,69.3,64.5,100,86,61,30.10,30.01,14,2,14,0.00
2013-12-6,88.0,77.4,68.9,73.1,70.4,67.7,97,80,54,30.12,30.02,13,2,13,0.00
2013-12-7,86.7,74.3,65.5,75.6,69.3,65.5,100,86,58,30.15,30.07,12,1,12,0.04
2013-12-8,85.9,76.4,68.6,75.3,70.7,66.7,100,84,58,30.14,30.06,15,3,15,0.04
2013-12-9,87.6,77.9,70.8,72.6,69.2,64.8,98,76,51,30.13,30.04,13,2,13,0.00
2013-12-10,88.4,76.6,68.1,75.8,71.9,68.1,100,87,59,30.09,30.01,11,1,11,0.00
2013-12-11,87.0,76.0,69.6,77.7,71.8,69.6,100,88,60,30.13,30.05,11,2,11,0.00
2013-12-12,83.2,71.7,63.9,74.6,67.5,60.0,100,88,65,30.16,30.07,15,3,15,0.00
2013-12-13,80.1,72.3,62.4,71.3,64.7,59.3,97,78,61,30.12,30.03,18,4,18,0.01
2013-12-14,84.7,77.1,72.5,73.8,71.8,70.0,100,84,64,30.04,29.92,15,2,15,0.01
2013-12-15,83.8,76.3,70.9,78.1,73.3,70.3,100,91,72,29.99,29.87,13,2,13,0.00
2013-12-16,73.9,68.3,61.8,70.3,62.9,60.0,98,83,68,30.09,29.97,12,3,12,0.00
2013-12-17,81.4,67.2,58.6,66.8,60.9,58.6,100,82,52,30.11,30.03,14,2,14,0.00
2013-12-18,81.1,66.7,58.6,62.8,59.2,57.0,100,79,46,30.17,30.08,14,3,14,0.00
2013-12-19,80.3,67.2,56.2,63.3,60.3,56.2,100,80,52,30.17,30.08,6,1,17,0.00
2013-12-20,84.0,74.5,63.9,70.8,67.8,61.8,100,81,59,30.11,30.04,14,3,14,0.00
2013-12-21,83.6,77.9,74.4,74.9,72.6,70.2,95,84,68,30.08,30.00,16,3,16,0.00
2013-12-22,88.0,79.4,75.6,75.1,73.1,70.8,94,82,60,30.09,30.01,12,3,12,0.00
2013-12-23,87.2,78.2,70.1,75.5,73.1,69.9,100,85,64,30.11,30.05,12,2,12,0.00
2013-12-24,85.7,71.9,66.8,76.2,67.9,61.4,100,88,60,30.11,30.02,13,2,19,0.00
2013-12-25,78.6,73.2,67.9,69.1,66.7,63.6,92,81,67,30.10,30.03,18,4,18,0.00
2013-12-26,79.4,75.3,72.0,72.1,70.2,67.9,93,84,73,30.09,30.00,12,2,12,0.00
2013-12-27,83.2,74.7,67.6,75.5,70.6,67.6,100,88,68,30.12,30.02,13,3,13,0.02
2013-12-28,80.9,76.7,74.2,74.2,71.6,68.8,94,85,75,30.11,29.96,16,4,16,0.00
2013-12-29,81.8,77.1,74.4,76.2,74.8,73.4,100,93,80,29.97,29.86,14,2,14,0.00
2013-12-30,83.2,74.3,68.4,74.6,71.5,66.7,100,92,67,30.08,29.91,9,2,12,0.00
2013-12-31,81.1,72.7,66.9,70.1,65.5,63.1,99,79,56,30.16,30.04,16,4,16,0.00
2014-1-1,82.8,75.2,72.0,77.7,72.0,63.8,100,90,70,30.12,29.98,14,2,14,0.30
2014-1-2,86.5,75.3,66.8,75.7,70.0,66.6,100,86,55,29.98,29.81,17,2,17,0.01